,,,PA_Meas_PMT16A,,PR_Meas_QMR101_102,,RH_Meas_QMH101,,SR_Meas_QMS101,,TA_Meas_QMH101,,GenWind,,GenWind,
date,time,status,PA,status,PR,status,RH,status,SR,status,TA,status,DirAvg,status,SpdAvg,
2009-06-14, 00:00:04,VALID,1004.57,VALID,0,VALID,93.7361,VALID,0,VALID,23.7212,VALID,57,VALID,0.347266,
2009-06-14, 00:01:04,VALID,1004.57,VALID,0,VALID,93.7895,VALID,0,VALID,23.7443,VALID,57,VALID,0.347266,
2009-06-14, 00:02:04,VALID,1004.55,VALID,0,VALID,93.9344,VALID,0,VALID,23.7425,VALID,57,VALID,0.359375,
2009-06-14, 00:03:04,VALID,1004.56,VALID,0,VALID,94.0259,VALID,0,VALID,23.7814,VALID,56,VALID,0.35,
2009-06-14, 00:04:04,VALID,1004.57,VALID,0,VALID,94.0183,VALID,0,VALID,23.8009,VALID,56,VALID,0.423047,
2009-06-14, 00:05:04,VALID,1004.56,VALID,0,VALID,94.0183,VALID,0,VALID,23.7796,VALID,56,VALID,0.323438,
2009-06-14, 00:06:04,VALID,1004.56,VALID,0,VALID,93.9268,VALID,0,VALID,23.7619,VALID,53,VALID,0.468359,
2009-06-14, 00:07:04,VALID,1004.61,VALID,0,VALID,93.8963,VALID,0,VALID,23.7425,VALID,53,VALID,0.351172,
2009-06-14, 00:08:04,VALID,1004.57,VALID,0,VALID,93.9268,VALID,0,VALID,23.7425,VALID,24,VALID,0.430078,
2009-06-14, 00:09:04,VALID,1004.59,VALID,0,VALID,93.8505,VALID,0,VALID,23.7035,VALID,24,VALID,0.500781,
2009-06-14, 00:10:04,VALID,1004.61,VALID,0,VALID,93.8352,VALID,0,VALID,23.6646,VALID,5,VALID,0.540625,
2009-06-14, 00:11:04,VALID,1004.59,VALID,0,VALID,93.8963,VALID,0,VALID,23.6841,VALID,354,VALID,0.44375,
2009-06-14, 00:12:04,VALID,1004.57,VALID,0,VALID,93.9191,VALID,0,VALID,23.6239,VALID,354,VALID,0.311719,
2009-06-14, 00:13:04,VALID,1004.54,VALID,0,VALID,93.9725,VALID,0,VALID,23.6452,VALID,354,VALID,0.238672,
2009-06-14, 00:14:04,VALID,1004.56,VALID,0,VALID,94.087,VALID,0,VALID,23.6628,VALID,354,VALID,0.542969,
2009-06-14, 00:15:04,VALID,1004.55,VALID,0,VALID,94.0946,VALID,0,VALID,23.6646,VALID,354,VALID,0.530859,
2009-06-14, 00:16:04,VALID,1004.55,VALID,0,VALID,94.1022,VALID,0,VALID,23.6664,VALID,354,VALID,0.578906,
2009-06-14, 00:17:04,VALID,1004.55,VALID,0,VALID,94.1022,VALID,0,VALID,23.6646,VALID,354,VALID,0.653125,
2009-06-14, 00:18:04,VALID,1004.54,VALID,0,VALID,94.0946,VALID,0,VALID,23.6452,VALID,354,VALID,0.564844,
2009-06-14, 00:19:04,VALID,1004.53,VALID,0,VALID,94.1709,VALID,0,VALID,23.6044,VALID,354,VALID,0.383594,
2009-06-14, 00:20:04,VALID,1004.5,VALID,0,VALID,94.2014,VALID,0,VALID,23.6452,VALID,354,VALID,0.475,
2009-06-14, 00:21:04,VALID,1004.5,VALID,0,VALID,94.2167,VALID,0,VALID,23.6452,VALID,354,VALID,0.120703,
2009-06-14, 00:22:04,VALID,1004.48,VALID,0,VALID,94.2396,VALID,0,VALID,23.6646,VALID,354,VALID,0.460547,
2009-06-14, 00:23:04,VALID,1004.51,VALID,0,VALID,94.3235,VALID,0,VALID,23.7035,VALID,359,VALID,0.425391,
2009-06-14, 00:24:04,VALID,1004.48,VALID,0,VALID,94.354,VALID,0,VALID,23.6823,VALID,359,VALID,0.00546875,
2009-06-14, 00:25:04,VALID,1004.49,VALID,0,VALID,94.3616,VALID,0,VALID,23.7035,VALID,358,VALID,0.09375,
2009-06-14, 00:26:04,VALID,1004.49,VALID,0,VALID,94.3998,VALID,0,VALID,23.723,VALID,359,VALID,0,
2009-06-14, 00:27:04,VALID,1004.5,VALID,0,VALID,94.415,VALID,0,VALID,23.7425,VALID,359,VALID,0.308984,
2009-06-14, 00:28:04,VALID,1004.52,VALID,0,VALID,94.3387,VALID,0,VALID,23.723,VALID,358,VALID,0.246875,
2009-06-14, 00:29:04,VALID,1004.51,VALID,0,VALID,94.3769,VALID,0,VALID,23.723,VALID,358,VALID,0.119531,
2009-06-14, 00:30:04,VALID,1004.52,VALID,0,VALID,94.415,VALID,0,VALID,23.7425,VALID,358,VALID,0.160156,
2009-06-14, 00:31:04,VALID,1004.52,VALID,0,VALID,94.4303,VALID,0,VALID,23.7425,VALID,358,VALID,0,
2009-06-14, 00:32:04,VALID,1004.53,VALID,0,VALID,94.4227,VALID,0,VALID,23.7601,VALID,359,VALID,0,
2009-06-14, 00:33:04,VALID,1004.54,VALID,0,VALID,94.354,VALID,0,VALID,23.7619,VALID,359,VALID,0,
2009-06-14, 00:34:04,VALID,1004.54,VALID,0,VALID,94.3616,VALID,0,VALID,23.7212,VALID,359,VALID,0,
2009-06-14, 00:35:04,VALID,1004.53,VALID,0,VALID,94.4227,VALID,0,VALID,23.7425,VALID,359,VALID,0,
2009-06-14, 00:36:04,VALID,1004.52,VALID,0,VALID,94.4455,VALID,0,VALID,23.7619,VALID,359,VALID,0,
2009-06-14, 00:37:04,VALID,1004.53,VALID,0,VALID,94.4455,VALID,0,VALID,23.7619,VALID,358,VALID,0,
2009-06-14, 00:38:04,VALID,1004.49,VALID,0,VALID,94.3998,VALID,0,VALID,23.7619,VALID,359,VALID,0,
2009-06-14, 00:39:04,VALID,1004.52,VALID,0,VALID,94.4227,VALID,0,VALID,23.7619,VALID,359,VALID,0,
2009-06-14, 00:40:04,VALID,1004.5,VALID,0,VALID,94.4379,VALID,0,VALID,23.7619,VALID,358,VALID,0,
2009-06-14, 00:41:04,VALID,1004.49,VALID,0,VALID,94.4684,VALID,0,VALID,23.7814,VALID,359,VALID,0.101172,
2009-06-14, 00:42:04,VALID,1004.47,VALID,0,VALID,94.4608,VALID,0,VALID,23.7814,VALID,358,VALID,0.321875,
2009-06-14, 00:43:04,VALID,1004.47,VALID,0,VALID,94.4989,VALID,0,VALID,23.8009,VALID,358,VALID,0.466406,
2009-06-14, 00:44:04,VALID,1004.45,VALID,0,VALID,94.4532,VALID,0,VALID,23.7796,VALID,358,VALID,0.464063,
2009-06-14, 00:45:04,VALID,1004.44,VALID,0,VALID,94.4455,VALID,0,VALID,23.8203,VALID,358,VALID,0.460547,
2009-06-14, 00:46:04,VALID,1004.44,VALID,0,VALID,94.3006,VALID,0,VALID,23.7601,VALID,358,VALID,0.524609,
2009-06-14, 00:47:04,VALID,1004.42,VALID,0,VALID,94.3006,VALID,0,VALID,23.7425,VALID,358,VALID,0.386719,
2009-06-14, 00:48:04,VALID,1004.41,VALID,0,VALID,94.2624,VALID,0,VALID,23.6823,VALID,358,VALID,0.317187,
2009-06-14, 00:49:04,VALID,1004.37,VALID,0,VALID,94.2701,VALID,0,VALID,23.6841,VALID,358,VALID,0.299219,
2009-06-14, 00:50:04,VALID,1004.39,VALID,0,VALID,94.3158,VALID,0,VALID,23.6841,VALID,358,VALID,0.296094,
2009-06-14, 00:51:04,VALID,1004.4,VALID,0,VALID,94.3616,VALID,0,VALID,23.6841,VALID,358,VALID,0.146094,
2009-06-14, 00:52:04,VALID,1004.38,VALID,0,VALID,94.3845,VALID,0,VALID,23.6841,VALID,358,VALID,0.128125,
2009-06-14, 00:53:04,VALID,1004.34,VALID,0,VALID,94.3311,VALID,0,VALID,23.6646,VALID,358,VALID,0.247266,
2009-06-14, 00:54:04,VALID,1004.35,VALID,0,VALID,94.415,VALID,0,VALID,23.6434,VALID,358,VALID,0.175781,
2009-06-14, 00:55:04,VALID,1004.36,VALID,0,VALID,94.4074,VALID,0,VALID,23.6434,VALID,358,VALID,0.0234375,
2009-06-14, 00:56:04,VALID,1004.35,VALID,0,VALID,94.415,VALID,0,VALID,23.6841,VALID,358,VALID,0,
2009-06-14, 00:57:04,VALID,1004.36,VALID,0,VALID,94.3845,VALID,0,VALID,23.6646,VALID,358,VALID,0,
2009-06-14, 00:58:04,VALID,1004.32,VALID,0,VALID,94.3845,VALID,0,VALID,23.6646,VALID,358,VALID,0,
2009-06-14, 00:59:04,VALID,1004.32,VALID,0,VALID,94.415,VALID,0,VALID,23.6452,VALID,358,VALID,0,
2009-06-14, 01:00:04,VALID,1004.33,VALID,0,VALID,94.4303,VALID,0,VALID,23.6434,VALID,358,VALID,0,
2009-06-14, 01:01:04,VALID,1004.34,VALID,0,VALID,94.4379,VALID,0,VALID,23.6646,VALID,358,VALID,0.187109,
2009-06-14, 01:02:04,VALID,1004.32,VALID,0,VALID,94.415,VALID,0,VALID,23.6452,VALID,358,VALID,0.0640625,
2009-06-14, 01:03:04,VALID,1004.33,VALID,0,VALID,94.4837,VALID,0,VALID,23.6646,VALID,358,VALID,0.0078125,
2009-06-14, 01:04:04,VALID,1004.31,VALID,0,VALID,94.4989,VALID,0,VALID,23.6646,VALID,358,VALID,0.293359,
2009-06-14, 01:05:04,VALID,1004.29,VALID,0,VALID,94.4684,VALID,0,VALID,23.6434,VALID,358,VALID,0.303125,
2009-06-14, 01:06:04,VALID,1004.27,VALID,0,VALID,94.4227,VALID,0,VALID,23.6257,VALID,358,VALID,0.304688,
2009-06-14, 01:07:04,VALID,1004.28,VALID,0,VALID,94.4379,VALID,0,VALID,23.6044,VALID,358,VALID,0.14375,
2009-06-14, 01:08:04,VALID,1004.26,VALID,0,VALID,94.5447,VALID,0,VALID,23.6044,VALID,358,VALID,0.040625,
2009-06-14, 01:09:04,VALID,1004.24,VALID,0,VALID,94.56,VALID,0,VALID,23.6434,VALID,358,VALID,0.147266,
2009-06-14, 01:10:04,VALID,1004.26,VALID,0,VALID,94.5981,VALID,0,VALID,23.6628,VALID,358,VALID,0.126172,
2009-06-14, 01:11:04,VALID,1004.24,VALID,0,VALID,94.6134,VALID,0,VALID,23.6823,VALID,358,VALID,0.320703,
2009-06-14, 01:12:04,VALID,1004.21,VALID,0,VALID,94.5829,VALID,0,VALID,23.6628,VALID,358,VALID,0.00585938,
2009-06-14, 01:13:04,VALID,1004.23,VALID,0,VALID,94.5905,VALID,0,VALID,23.6841,VALID,357,VALID,0.0148437,
2009-06-14, 01:14:04,VALID,1004.2,VALID,0,VALID,94.5676,VALID,0,VALID,23.7035,VALID,357,VALID,0,
2009-06-14, 01:15:04,VALID,1004.2,VALID,0,VALID,94.5676,VALID,0,VALID,23.7035,VALID,357,VALID,0.25625,
2009-06-14, 01:16:04,VALID,1004.17,VALID,0,VALID,94.5752,VALID,0,VALID,23.6823,VALID,356,VALID,0.567578,
2009-06-14, 01:17:04,VALID,1004.11,VALID,0,VALID,94.6363,VALID,0,VALID,23.7017,VALID,356,VALID,0.583594,
2009-06-14, 01:18:04,VALID,1004.14,VALID,0,VALID,94.6286,VALID,0,VALID,23.7425,VALID,356,VALID,0.400781,
2009-06-14, 01:19:04,VALID,1004.1,VALID,0,VALID,94.5981,VALID,0,VALID,23.723,VALID,356,VALID,0.171094,
2009-06-14, 01:20:04,VALID,1004.04,VALID,0,VALID,94.5523,VALID,0,VALID,23.6628,VALID,356,VALID,0,
2009-06-14, 01:21:04,VALID,1004.06,VALID,0,VALID,94.4761,VALID,0.100563,VALID,23.6434,VALID,356,VALID,0,
2009-06-14, 01:22:04,VALID,1004.07,VALID,0,VALID,94.4837,VALID,0,VALID,23.6239,VALID,356,VALID,0.172266,
2009-06-14, 01:23:04,VALID,1004.06,VALID,0,VALID,94.4761,VALID,0,VALID,23.6257,VALID,356,VALID,0,
2009-06-14, 01:24:04,VALID,1004.05,VALID,0,VALID,94.4761,VALID,0,VALID,23.6044,VALID,356,VALID,0.0046875,
2009-06-14, 01:25:04,VALID,1004.01,VALID,0,VALID,94.4761,VALID,0,VALID,23.6257,VALID,356,VALID,0.163281,
2009-06-14, 01:26:04,VALID,1004.03,VALID,0,VALID,94.5066,VALID,0,VALID,23.6062,VALID,356,VALID,0.164063,
2009-06-14, 01:27:04,VALID,1004.01,VALID,0,VALID,94.5676,VALID,0,VALID,23.6062,VALID,356,VALID,0.232812,
2009-06-14, 01:28:04,VALID,1003.99,VALID,0,VALID,94.56,VALID,0,VALID,23.6257,VALID,356,VALID,0.325391,
2009-06-14, 01:29:04,VALID,1004,VALID,0,VALID,94.5829,VALID,0,VALID,23.6239,VALID,356,VALID,0.266406,
2009-06-14, 01:30:04,VALID,1003.99,VALID,0,VALID,94.5905,VALID,0,VALID,23.6452,VALID,356,VALID,0.296484,
2009-06-14, 01:31:04,VALID,1003.99,VALID,0,VALID,94.621,VALID,0,VALID,23.6239,VALID,356,VALID,0.235156,
2009-06-14, 01:32:04,VALID,1003.96,VALID,0,VALID,94.6439,VALID,0,VALID,23.6646,VALID,356,VALID,0.189063,
2009-06-14, 01:33:04,VALID,1003.92,VALID,0,VALID,94.621,VALID,0,VALID,23.6452,VALID,356,VALID,0.41875,
2009-06-14, 01:34:04,VALID,1003.89,VALID,0,VALID,94.5752,VALID,0,VALID,23.6062,VALID,356,VALID,0.404687,
2009-06-14, 01:35:04,VALID,1003.88,VALID,0,VALID,94.5371,VALID,0,VALID,23.5673,VALID,356,VALID,0.433594,
2009-06-14, 01:36:04,VALID,1003.87,VALID,0,VALID,94.5447,VALID,0,VALID,23.5478,VALID,356,VALID,0.223047,
2009-06-14, 01:37:04,VALID,1003.86,VALID,0,VALID,94.5752,VALID,0,VALID,23.5478,VALID,356,VALID,0,
2009-06-14, 01:38:04,VALID,1003.83,VALID,0,VALID,94.6057,VALID,0,VALID,23.5673,VALID,356,VALID,0.287109,
2009-06-14, 01:39:04,VALID,1003.82,VALID,0,VALID,94.5676,VALID,0,VALID,23.5071,VALID,356,VALID,0.404687,
2009-06-14, 01:40:04,VALID,1003.8,VALID,0,VALID,94.621,VALID,0,VALID,23.5673,VALID,355,VALID,0.173828,
2009-06-14, 01:41:04,VALID,1003.79,VALID,0,VALID,94.6134,VALID,0,VALID,23.5478,VALID,355,VALID,0.0429688,
2009-06-14, 01:42:04,VALID,1003.79,VALID,0,VALID,94.621,VALID,0,VALID,23.5284,VALID,355,VALID,0,
2009-06-14, 01:43:04,VALID,1003.79,VALID,0,VALID,94.5981,VALID,0.100563,VALID,23.5284,VALID,355,VALID,0.00390625,
2009-06-14, 01:44:04,VALID,1003.74,VALID,0,VALID,94.6057,VALID,0,VALID,23.5071,VALID,355,VALID,0.229687,
2009-06-14, 01:45:04,VALID,1003.72,VALID,0,VALID,94.5981,VALID,0,VALID,23.4877,VALID,355,VALID,0.191406,
2009-06-14, 01:46:04,VALID,1003.71,VALID,0,VALID,94.5905,VALID,0,VALID,23.4682,VALID,355,VALID,0.352344,
2009-06-14, 01:47:04,VALID,1003.68,VALID,0,VALID,94.5523,VALID,0,VALID,23.4293,VALID,355,VALID,0.389844,
2009-06-14, 01:48:04,VALID,1003.66,VALID,0,VALID,94.5676,VALID,0,VALID,23.4116,VALID,355,VALID,0.49375,
2009-06-14, 01:49:04,VALID,1003.66,VALID,0,VALID,94.5905,VALID,0,VALID,23.3904,VALID,358,VALID,0.4875,
2009-06-14, 01:50:04,VALID,1003.63,VALID,0,VALID,94.5371,VALID,0,VALID,23.3709,VALID,358,VALID,0.500781,
2009-06-14, 01:51:04,VALID,1003.64,VALID,0,VALID,94.5905,VALID,0,VALID,23.3709,VALID,358,VALID,0.469141,
2009-06-14, 01:52:04,VALID,1003.62,VALID,0,VALID,94.6286,VALID,0,VALID,23.3904,VALID,358,VALID,0.377734,
2009-06-14, 01:53:04,VALID,1003.6,VALID,0,VALID,94.6363,VALID,0,VALID,23.3921,VALID,358,VALID,0.01875,
2009-06-14, 01:54:04,VALID,1003.61,VALID,0,VALID,94.6591,VALID,0,VALID,23.3514,VALID,358,VALID,0.0925781,
2009-06-14, 01:55:04,VALID,1003.63,VALID,0,VALID,94.6363,VALID,0,VALID,23.3514,VALID,358,VALID,0,
2009-06-14, 01:56:04,VALID,1003.6,VALID,0,VALID,94.6439,VALID,0,VALID,23.3709,VALID,358,VALID,0.003125,
2009-06-14, 01:57:04,VALID,1003.62,VALID,0,VALID,94.682,VALID,0.100563,VALID,23.3709,VALID,358,VALID,0.0121094,
2009-06-14, 01:58:04,VALID,1003.61,VALID,0,VALID,94.6973,VALID,0,VALID,23.3921,VALID,358,VALID,0,
2009-06-14, 01:59:04,VALID,1003.61,VALID,0,VALID,94.6897,VALID,0,VALID,23.3709,VALID,358,VALID,0.248047,
2009-06-14, 02:00:04,VALID,1003.58,VALID,0,VALID,94.7202,VALID,0,VALID,23.4116,VALID,358,VALID,0.388672,
2009-06-14, 02:01:04,VALID,1003.59,VALID,0,VALID,94.7583,VALID,0,VALID,23.4311,VALID,358,VALID,0,
2009-06-14, 02:02:04,VALID,1003.56,VALID,0,VALID,94.8041,VALID,0,VALID,23.4311,VALID,358,VALID,0,
2009-06-14, 02:03:04,VALID,1003.56,VALID,0,VALID,94.8346,VALID,0,VALID,23.4682,VALID,358,VALID,0,
2009-06-14, 02:04:04,VALID,1003.54,VALID,0,VALID,94.8499,VALID,0,VALID,23.5302,VALID,358,VALID,0,
2009-06-14, 02:05:04,VALID,1003.52,VALID,0,VALID,94.8651,VALID,0,VALID,23.5071,VALID,358,VALID,0,
2009-06-14, 02:06:04,VALID,1003.5,VALID,0,VALID,94.8346,VALID,0,VALID,23.4877,VALID,358,VALID,0,
2009-06-14, 02:07:04,VALID,1003.47,VALID,0,VALID,94.7965,VALID,0,VALID,23.4487,VALID,358,VALID,0,
2009-06-14, 02:08:04,VALID,1003.48,VALID,0,VALID,94.7736,VALID,0,VALID,23.3691,VALID,358,VALID,0,
2009-06-14, 02:09:04,VALID,1003.48,VALID,0,VALID,94.7507,VALID,0,VALID,23.4116,VALID,358,VALID,0,
2009-06-14, 02:10:04,VALID,1003.49,VALID,0,VALID,94.7736,VALID,0,VALID,23.4328,VALID,358,VALID,0,
2009-06-14, 02:11:04,VALID,1003.47,VALID,0,VALID,94.827,VALID,0,VALID,23.4505,VALID,358,VALID,0.125391,
2009-06-14, 02:12:04,VALID,1003.49,VALID,0,VALID,94.8346,VALID,0,VALID,23.4487,VALID,358,VALID,0.0324219,
2009-06-14, 02:13:04,VALID,1003.44,VALID,0,VALID,94.8575,VALID,0,VALID,23.4877,VALID,358,VALID,0.310156,
2009-06-14, 02:14:04,VALID,1003.42,VALID,0,VALID,94.8422,VALID,0.100563,VALID,23.4682,VALID,358,VALID,0.501172,
2009-06-14, 02:15:04,VALID,1003.42,VALID,0,VALID,94.827,VALID,0.100563,VALID,23.4487,VALID,358,VALID,0.395312,
2009-06-14, 02:16:04,VALID,1003.41,VALID,0,VALID,94.8346,VALID,0,VALID,23.4487,VALID,358,VALID,0.390234,
2009-06-14, 02:17:04,VALID,1003.42,VALID,0,VALID,94.8194,VALID,0,VALID,23.4487,VALID,358,VALID,0.210547,
2009-06-14, 02:18:04,VALID,1003.41,VALID,0,VALID,94.8346,VALID,0,VALID,23.4894,VALID,358,VALID,0.028125,
2009-06-14, 02:19:04,VALID,1003.39,VALID,0,VALID,94.8422,VALID,0,VALID,23.4877,VALID,358,VALID,0.0890625,
2009-06-14, 02:20:04,VALID,1003.37,VALID,0,VALID,94.8575,VALID,0,VALID,23.4877,VALID,358,VALID,0,
2009-06-14, 02:21:04,VALID,1003.36,VALID,0,VALID,94.8499,VALID,0,VALID,23.4877,VALID,358,VALID,0.288281,
2009-06-14, 02:22:04,VALID,1003.35,VALID,0,VALID,94.8041,VALID,0,VALID,23.4682,VALID,358,VALID,0.486719,
2009-06-14, 02:23:04,VALID,1003.34,VALID,0,VALID,94.8194,VALID,0,VALID,23.4894,VALID,358,VALID,0.509375,
2009-06-14, 02:24:04,VALID,1003.35,VALID,0,VALID,94.8041,VALID,0,VALID,23.4682,VALID,358,VALID,0.358203,
2009-06-14, 02:25:04,VALID,1003.32,VALID,0,VALID,94.7812,VALID,0,VALID,23.4682,VALID,358,VALID,0.364844,
2009-06-14, 02:26:04,VALID,1003.32,VALID,0,VALID,94.7736,VALID,0.100563,VALID,23.4487,VALID,358,VALID,0.351563,
2009-06-14, 02:27:04,VALID,1003.32,VALID,0,VALID,94.7888,VALID,0,VALID,23.4505,VALID,358,VALID,0.299609,
2009-06-14, 02:28:04,VALID,1003.33,VALID,0,VALID,94.7736,VALID,0,VALID,23.3904,VALID,358,VALID,0.200391,
2009-06-14, 02:29:04,VALID,1003.35,VALID,0,VALID,94.7354,VALID,0,VALID,23.3904,VALID,345,VALID,0.3,
2009-06-14, 02:30:04,VALID,1003.36,VALID,0,VALID,94.7583,VALID,0.100563,VALID,23.4311,VALID,345,VALID,0.0609375,
2009-06-14, 02:31:04,VALID,1003.36,VALID,0,VALID,94.7812,VALID,0,VALID,23.4311,VALID,345,VALID,0.0046875,
2009-06-14, 02:32:04,VALID,1003.33,VALID,0,VALID,94.7965,VALID,0,VALID,23.4505,VALID,345,VALID,0,
2009-06-14, 02:33:04,VALID,1003.36,VALID,0,VALID,94.8422,VALID,0.100563,VALID,23.4894,VALID,345,VALID,0,
2009-06-14, 02:34:04,VALID,1003.34,VALID,0,VALID,94.8728,VALID,0,VALID,23.4877,VALID,345,VALID,0,
2009-06-14, 02:35:04,VALID,1003.32,VALID,0,VALID,94.8651,VALID,0,VALID,23.4877,VALID,345,VALID,0,
2009-06-14, 02:36:04,VALID,1003.35,VALID,0,VALID,94.8651,VALID,0,VALID,23.5266,VALID,345,VALID,0,
2009-06-14, 02:37:04,VALID,1003.34,VALID,0,VALID,94.9109,VALID,0,VALID,23.585,VALID,345,VALID,0.314063,
2009-06-14, 02:38:04,VALID,1003.32,VALID,0,VALID,94.9185,VALID,0.100563,VALID,23.585,VALID,345,VALID,0.251172,
2009-06-14, 02:39:04,VALID,1003.36,VALID,0,VALID,94.9033,VALID,0.100563,VALID,23.546,VALID,345,VALID,0,
2009-06-14, 02:40:04,VALID,1003.35,VALID,0,VALID,94.8575,VALID,0,VALID,23.5266,VALID,345,VALID,0,
2009-06-14, 02:41:04,VALID,1003.31,VALID,0,VALID,94.8651,VALID,0.100563,VALID,23.546,VALID,345,VALID,0.00078125,
2009-06-14, 02:42:04,VALID,1003.31,VALID,0,VALID,94.9262,VALID,0,VALID,23.6452,VALID,345,VALID,0.301172,
2009-06-14, 02:43:04,VALID,1003.29,VALID,0,VALID,94.9185,VALID,0.100563,VALID,23.6062,VALID,345,VALID,0.463672,
2009-06-14, 02:44:04,VALID,1003.29,VALID,0,VALID,94.8804,VALID,0.100563,VALID,23.5655,VALID,345,VALID,0.435156,
2009-06-14, 02:45:04,VALID,1003.28,VALID,0,VALID,94.9109,VALID,0,VALID,23.6044,VALID,345,VALID,0.490234,
2009-06-14, 02:46:04,VALID,1003.28,VALID,0,VALID,94.9262,VALID,0,VALID,23.6239,VALID,345,VALID,0.507031,
2009-06-14, 02:47:04,VALID,1003.25,VALID,0,VALID,94.9109,VALID,0.100563,VALID,23.6062,VALID,345,VALID,0.582812,
2009-06-14, 02:48:04,VALID,1003.27,VALID,0,VALID,94.8575,VALID,0,VALID,23.5868,VALID,345,VALID,0.567187,
2009-06-14, 02:49:04,VALID,1003.23,VALID,0,VALID,94.8422,VALID,0,VALID,23.5655,VALID,347,VALID,0.541016,
2009-06-14, 02:50:04,VALID,1003.24,VALID,0,VALID,94.8575,VALID,0.100563,VALID,23.546,VALID,350,VALID,0.532422,
2009-06-14, 02:51:04,VALID,1003.23,VALID,0,VALID,94.8651,VALID,0,VALID,23.5655,VALID,357,VALID,0.521484,
2009-06-14, 02:52:04,VALID,1003.24,VALID,0,VALID,94.888,VALID,0,VALID,23.6044,VALID,358,VALID,0.463672,
2009-06-14, 02:53:04,VALID,1003.23,VALID,0,VALID,94.888,VALID,0.100563,VALID,23.585,VALID,358,VALID,0.370703,
2009-06-14, 02:54:04,VALID,1003.25,VALID,0,VALID,94.8804,VALID,0,VALID,23.6257,VALID,358,VALID,0.410937,
2009-06-14, 02:55:04,VALID,1003.28,VALID,0,VALID,94.8728,VALID,0,VALID,23.585,VALID,358,VALID,0.360156,
2009-06-14, 02:56:04,VALID,1003.28,VALID,0,VALID,94.8575,VALID,0,VALID,23.5868,VALID,358,VALID,0.376172,
2009-06-14, 02:57:04,VALID,1003.3,VALID,0,VALID,94.8575,VALID,0,VALID,23.5868,VALID,358,VALID,0.453906,
2009-06-14, 02:58:04,VALID,1003.32,VALID,0,VALID,94.8346,VALID,0,VALID,23.5655,VALID,358,VALID,0.349219,
2009-06-14, 02:59:04,VALID,1003.33,VALID,0,VALID,94.8422,VALID,0,VALID,23.5868,VALID,358,VALID,0.441406,
2009-06-14, 03:00:04,VALID,1003.35,VALID,0,VALID,94.8346,VALID,0,VALID,23.5868,VALID,358,VALID,0.342578,
2009-06-14, 03:01:04,VALID,1003.31,VALID,0,VALID,94.8346,VALID,0,VALID,23.5868,VALID,358,VALID,0.360547,
2009-06-14, 03:02:04,VALID,1003.32,VALID,0,VALID,94.8422,VALID,0,VALID,23.5673,VALID,358,VALID,0.403906,
2009-06-14, 03:03:04,VALID,1003.3,VALID,0,VALID,94.8346,VALID,0,VALID,23.5673,VALID,358,VALID,0.289844,
2009-06-14, 03:04:04,VALID,1003.32,VALID,0,VALID,94.8575,VALID,0,VALID,23.5673,VALID,358,VALID,0.143359,
2009-06-14, 03:05:04,VALID,1003.32,VALID,0,VALID,94.8651,VALID,0,VALID,23.5673,VALID,358,VALID,0.211328,
2009-06-14, 03:06:04,VALID,1003.3,VALID,0,VALID,94.8956,VALID,0,VALID,23.6062,VALID,358,VALID,0.324609,
2009-06-14, 03:07:04,VALID,1003.28,VALID,0,VALID,94.9109,VALID,0,VALID,23.6062,VALID,358,VALID,0.259375,
2009-06-14, 03:08:04,VALID,1003.33,VALID,0,VALID,94.8956,VALID,0,VALID,23.5868,VALID,358,VALID,0.530859,
2009-06-14, 03:09:04,VALID,1003.32,VALID,0,VALID,94.9033,VALID,0,VALID,23.6469,VALID,358,VALID,0.330469,
2009-06-14, 03:10:04,VALID,1003.3,VALID,0,VALID,94.9185,VALID,0,VALID,23.6044,VALID,358,VALID,0.314453,
2009-06-14, 03:11:04,VALID,1003.29,VALID,0,VALID,94.9185,VALID,0,VALID,23.6452,VALID,358,VALID,0.289844,
2009-06-14, 03:12:04,VALID,1003.32,VALID,0,VALID,94.949,VALID,0,VALID,23.6841,VALID,358,VALID,0.130078,
2009-06-14, 03:13:04,VALID,1003.33,VALID,0,VALID,94.9872,VALID,0,VALID,23.6841,VALID,358,VALID,0.185937,
2009-06-14, 03:14:04,VALID,1003.37,VALID,0,VALID,94.9719,VALID,0,VALID,23.7017,VALID,358,VALID,0.0273438,
2009-06-14, 03:15:04,VALID,1003.39,VALID,0,VALID,95.0101,VALID,0,VALID,23.7637,VALID,358,VALID,0,
2009-06-14, 03:16:04,VALID,1003.38,VALID,0,VALID,94.9948,VALID,0,VALID,23.7425,VALID,358,VALID,0,
2009-06-14, 03:17:04,VALID,1003.4,VALID,0,VALID,94.9872,VALID,0,VALID,23.7601,VALID,358,VALID,0.021875,
2009-06-14, 03:18:04,VALID,1003.39,VALID,0,VALID,94.9796,VALID,0,VALID,23.7407,VALID,358,VALID,0.428516,
2009-06-14, 03:19:04,VALID,1003.37,VALID,0,VALID,94.9719,VALID,0,VALID,23.7814,VALID,358,VALID,0.332031,
2009-06-14, 03:20:04,VALID,1003.36,VALID,0,VALID,94.9643,VALID,0,VALID,23.8009,VALID,358,VALID,0.314453,
2009-06-14, 03:21:04,VALID,1003.36,VALID,0,VALID,94.9567,VALID,0,VALID,23.8009,VALID,358,VALID,0.396875,
2009-06-14, 03:22:04,VALID,1003.34,VALID,0,VALID,94.9262,VALID,0,VALID,23.7601,VALID,358,VALID,0.189063,
2009-06-14, 03:23:04,VALID,1003.34,VALID,0,VALID,94.9262,VALID,0,VALID,23.8009,VALID,358,VALID,0.233203,
2009-06-14, 03:24:04,VALID,1003.35,VALID,0,VALID,94.9033,VALID,0,VALID,23.7814,VALID,358,VALID,0.202734,
2009-06-14, 03:25:04,VALID,1003.33,VALID,0,VALID,94.888,VALID,0,VALID,23.7601,VALID,358,VALID,0.222656,
2009-06-14, 03:26:04,VALID,1003.35,VALID,0,VALID,94.8651,VALID,0,VALID,23.7619,VALID,358,VALID,0.228516,
2009-06-14, 03:27:04,VALID,1003.32,VALID,0,VALID,94.8728,VALID,0,VALID,23.7814,VALID,358,VALID,0.132031,
2009-06-14, 03:28:04,VALID,1003.29,VALID,0,VALID,94.8956,VALID,0,VALID,23.8009,VALID,358,VALID,0.464063,
2009-06-14, 03:29:04,VALID,1003.27,VALID,0,VALID,94.8956,VALID,0,VALID,23.8009,VALID,358,VALID,0.438672,
2009-06-14, 03:30:04,VALID,1003.29,VALID,0,VALID,94.9033,VALID,0,VALID,23.8203,VALID,358,VALID,0.404297,
2009-06-14, 03:31:04,VALID,1003.27,VALID,0,VALID,94.949,VALID,0,VALID,23.838,VALID,358,VALID,0.339844,
2009-06-14, 03:32:04,VALID,1003.27,VALID,0,VALID,94.9414,VALID,0,VALID,23.9,VALID,358,VALID,0,
2009-06-14, 03:33:04,VALID,1003.27,VALID,0,VALID,94.9338,VALID,0,VALID,23.8787,VALID,358,VALID,0,
2009-06-14, 03:34:04,VALID,1003.28,VALID,0,VALID,94.9262,VALID,0,VALID,23.8398,VALID,358,VALID,0.176563,
2009-06-14, 03:35:04,VALID,1003.25,VALID,0,VALID,94.8956,VALID,0,VALID,23.8398,VALID,358,VALID,0.190234,
2009-06-14, 03:36:04,VALID,1003.27,VALID,0,VALID,94.8651,VALID,0,VALID,23.8009,VALID,358,VALID,0.0046875,
2009-06-14, 03:37:04,VALID,1003.27,VALID,0,VALID,94.8575,VALID,0,VALID,23.8009,VALID,358,VALID,0.0578125,
2009-06-14, 03:38:04,VALID,1003.28,VALID,0,VALID,94.8651,VALID,0,VALID,23.8203,VALID,358,VALID,0.0351563,
2009-06-14, 03:39:04,VALID,1003.27,VALID,0,VALID,94.8728,VALID,0,VALID,23.8009,VALID,358,VALID,0.103125,
2009-06-14, 03:40:04,VALID,1003.28,VALID,0,VALID,94.8499,VALID,0,VALID,23.8009,VALID,358,VALID,0.0078125,
2009-06-14, 03:41:04,VALID,1003.25,VALID,0,VALID,94.8499,VALID,0,VALID,23.8203,VALID,358,VALID,0.01875,
2009-06-14, 03:42:04,VALID,1003.26,VALID,0,VALID,94.8499,VALID,0,VALID,23.8009,VALID,358,VALID,0,
2009-06-14, 03:43:04,VALID,1003.23,VALID,0,VALID,94.8575,VALID,0,VALID,23.7991,VALID,358,VALID,0,
2009-06-14, 03:44:04,VALID,1003.27,VALID,0,VALID,94.8575,VALID,0,VALID,23.8203,VALID,358,VALID,0,
2009-06-14, 03:45:04,VALID,1003.3,VALID,0,VALID,94.8728,VALID,0,VALID,23.8203,VALID,358,VALID,0,
2009-06-14, 03:46:04,VALID,1003.28,VALID,0,VALID,94.9109,VALID,0,VALID,23.8593,VALID,358,VALID,0,